Location: *
(47.7167°N, 1.7333°W)
Time: 18:10:07
(UTC+00:00)

Cosmos 2208 Rocket - Pass Details

Date: 09 April 2020
Orbit: 754 x 806 km, 74.0° (Epoch: 24 May)

Event Time Altitude Azimuth Distance (km) Brightness Sun altitude
Rises 21:28:00 0° 337° (NNW) 3,225 8.4 -24.0°
Reaches altitude 10° 21:30:22 10° 338° (NNW) 2,300 7.4 -24.3°
Maximum altitude 21:35:35 87° 66° (ENE) 773 3.9 -24.9°
Enters shadow 21:36:03 75° 146° (SE) 796 3.8 -24.9°
